EZY31BD EGKK-LEAL

Flight info

Callsign EZY31BD
Flight time 2h 3m
Altitude 37000
Route BOGNA L612 BENBO UY47 DRAKE L151 SITET UN859 SOPIL DCT BALAN DCT LMG DCT PIMQO DCT AGN DCT ANETO DCT TURUV DCT GRAUS DCT LOBAR DCT SEROX DCT CASPE DCT MLA DCT CRETA DCT RIMES DCT SAURA DCT TATOS DCT PLANA DCT VLC
Aircraft A319/M-SDE3FGHIRWY/LB1

Departure

Time 2026-04-16 13:18
Airport London Gatwick Airport (EGKK)

Arrival

Time 2026-04-16 15:21
Airport Alicante-Elche Miguel Hernández Airport (LEAL)
Time Latitude Longitude Altitude Speed Heading
2026-04-16 12:23 51.15855 -0.17431 204 ft 0 kts 347°
2026-04-16 13:05 51.15851 -0.17430 204 ft 3 kts 347°
2026-04-16 13:05 51.15825 -0.17421 209 ft 4 kts 347°
2026-04-16 13:05 51.15799 -0.17412 208 ft 4 kts 342°
2026-04-16 13:05 51.15780 -0.17394 216 ft 4 kts 283°
2026-04-16 13:06 51.15781 -0.17364 212 ft 4 kts 257°
2026-04-16 13:06 51.15783 -0.17352 211 ft 0 kts 257°
2026-04-16 13:10 51.15782 -0.17353 204 ft 0 kts 257°
2026-04-16 13:10 51.15781 -0.17363 212 ft 1 kts 257°
2026-04-16 13:11 51.15777 -0.17394 210 ft 5 kts 257°
2026-04-16 13:11 51.15768 -0.17457 204 ft 6 kts 257°
2026-04-16 13:11 51.15765 -0.17479 207 ft 0 kts 257°
2026-04-16 13:11 51.15765 -0.17481 207 ft 0 kts 257°
2026-04-16 13:12 51.15762 -0.17487 214 ft 2 kts 243°
2026-04-16 13:12 51.15732 -0.17500 209 ft 7 kts 178°
2026-04-16 13:12 51.15668 -0.17480 204 ft 11 kts 167°
2026-04-16 13:13 51.15588 -0.17452 204 ft 12 kts 167°
2026-04-16 13:13 51.15502 -0.17422 212 ft 13 kts 167°
2026-04-16 13:13 51.15410 -0.17390 204 ft 14 kts 168°
2026-04-16 13:13 51.15312 -0.17356 211 ft 15 kts 168°
2026-04-16 13:14 51.15231 -0.17299 205 ft 10 kts 145°
2026-04-16 13:14 51.15181 -0.17242 210 ft 5 kts 144°
2026-04-16 13:14 51.15179 -0.17240 210 ft 0 kts 144°
2026-04-16 13:16 51.15169 -0.17229 213 ft 4 kts 144°
2026-04-16 13:16 51.15138 -0.17175 206 ft 9 kts 131°
2026-04-16 13:17 51.15083 -0.17143 204 ft 8 kts 186°
2026-04-16 13:17 51.15062 -0.17228 204 ft 11 kts 259°
2026-04-16 13:17 51.15014 -0.17589 215 ft 69 kts 257°
2026-04-16 13:17 51.14860 -0.18695 203 ft 133 kts 257°
2026-04-16 13:18 51.14640 -0.20272 628 ft 148 kts 255°
2026-04-16 13:18 51.14427 -0.21883 1360 ft 150 kts 254°
2026-04-16 13:18 51.14209 -0.23529 2079 ft 152 kts 253°
2026-04-16 13:18 51.13988 -0.25188 2687 ft 157 kts 255°
2026-04-16 13:19 51.13746 -0.26941 3279 ft 168 kts 255°
2026-04-16 13:19 51.13474 -0.28857 3599 ft 194 kts 255°
2026-04-16 13:19 51.13159 -0.31051 4203 ft 209 kts 256°
2026-04-16 13:19 51.12835 -0.33332 5100 ft 214 kts 256°
2026-04-16 13:20 51.12504 -0.35677 5949 ft 220 kts 257°
2026-04-16 13:20 51.12171 -0.38060 6885 ft 221 kts 257°
2026-04-16 13:20 51.11693 -0.40429 7717 ft 227 kts 237°
2026-04-16 13:20 51.10473 -0.42027 8336 ft 246 kts 204°
2026-04-16 13:21 51.08688 -0.42389 8834 ft 271 kts 181°
2026-04-16 13:21 51.06789 -0.41888 9660 ft 284 kts 167°
2026-04-16 13:21 51.04880 -0.40967 10449 ft 293 kts 167°
2026-04-16 13:21 51.02846 -0.40027 10819 ft 314 kts 168°
2026-04-16 13:22 51.00709 -0.39068 11518 ft 323 kts 168°
2026-04-16 13:22 50.98525 -0.38102 12316 ft 328 kts 168°
2026-04-16 13:22 50.96315 -0.37133 13127 ft 332 kts 168°
2026-04-16 13:22 50.94069 -0.36152 13933 ft 337 kts 169°
2026-04-16 13:23 50.91791 -0.35162 14649 ft 341 kts 169°
2026-04-16 13:23 50.89492 -0.34166 15064 ft 345 kts 169°
2026-04-16 13:23 50.87180 -0.33164 15175 ft 344 kts 169°
2026-04-16 13:23 50.84860 -0.32151 15365 ft 348 kts 168°
2026-04-16 13:24 50.82523 -0.31131 16123 ft 350 kts 169°
2026-04-16 13:24 50.80170 -0.30107 16845 ft 353 kts 169°
2026-04-16 13:24 50.77789 -0.29075 17537 ft 357 kts 169°
2026-04-16 13:24 50.75381 -0.28034 18223 ft 360 kts 169°
2026-04-16 13:25 50.72950 -0.26983 18848 ft 364 kts 169°
2026-04-16 13:25 50.70490 -0.25920 19436 ft 368 kts 169°
2026-04-16 13:25 50.68009 -0.24845 20029 ft 372 kts 169°
2026-04-16 13:25 50.65501 -0.23760 20620 ft 375 kts 170°
2026-04-16 13:26 50.62972 -0.22665 21183 ft 379 kts 170°
2026-04-16 13:26 50.60408 -0.21561 21752 ft 383 kts 170°
2026-04-16 13:26 50.57823 -0.20454 22329 ft 387 kts 170°
2026-04-16 13:26 50.55211 -0.19336 22902 ft 391 kts 170°
2026-04-16 13:27 50.52579 -0.18208 23471 ft 395 kts 171°
2026-04-16 13:27 50.49949 -0.17084 23988 ft 398 kts 171°
2026-04-16 13:27 50.47266 -0.15939 24459 ft 401 kts 171°
2026-04-16 13:27 50.44563 -0.14787 24925 ft 404 kts 171°
2026-04-16 13:28 50.41833 -0.13624 25359 ft 407 kts 171°
2026-04-16 13:28 50.39089 -0.12453 25803 ft 411 kts 171°
2026-04-16 13:28 50.36320 -0.11267 26245 ft 414 kts 171°
2026-04-16 13:28 50.33834 -0.10204 26633 ft 416 kts 171°
2026-04-16 13:29 50.32063 -0.09451 26920 ft 418 kts 171°
2026-04-16 13:29 50.29250 -0.08259 27349 ft 420 kts 172°
2026-04-16 13:30 50.26416 -0.07059 27782 ft 423 kts 172°
2026-04-16 13:30 50.23568 -0.05848 28214 ft 426 kts 172°
2026-04-16 13:30 50.20700 -0.04628 28627 ft 428 kts 172°
2026-04-16 13:30 50.17816 -0.03396 29034 ft 431 kts 171°
2026-04-16 13:31 50.14916 -0.02150 29452 ft 434 kts 171°
2026-04-16 13:31 50.12002 -0.00893 29855 ft 436 kts 171°
2026-04-16 13:31 50.09062 0.00374 30219 ft 440 kts 172°
2026-04-16 13:31 50.06094 0.01606 30534 ft 443 kts 172°
2026-04-16 13:32 50.03100 0.02795 30866 ft 445 kts 173°
2026-04-16 13:32 50.00092 0.03958 31195 ft 447 kts 173°
2026-04-16 13:32 49.97067 0.05121 31516 ft 449 kts 173°
2026-04-16 13:32 49.94029 0.06294 31816 ft 451 kts 173°
2026-04-16 13:33 49.90983 0.07478 32210 ft 451 kts 173°
2026-04-16 13:33 49.87945 0.08662 32670 ft 450 kts 173°
2026-04-16 13:33 49.84909 0.09848 33120 ft 449 kts 173°
2026-04-16 13:33 49.81888 0.11034 33564 ft 448 kts 173°
2026-04-16 13:34 49.78870 0.12222 34010 ft 447 kts 173°
2026-04-16 13:34 49.75855 0.13406 34435 ft 446 kts 173°
2026-04-16 13:34 49.72849 0.14582 34798 ft 445 kts 173°
2026-04-16 13:34 49.69849 0.15753 35189 ft 444 kts 173°
2026-04-16 13:35 49.66857 0.16921 35571 ft 443 kts 173°
2026-04-16 13:35 49.63878 0.18104 35952 ft 442 kts 172°
2026-04-16 13:35 49.60907 0.19301 36311 ft 441 kts 172°
2026-04-16 13:35 49.57947 0.20504 36652 ft 440 kts 172°
2026-04-16 13:36 49.55033 0.21688 36986 ft 439 kts 172°
2026-04-16 13:36 49.52084 0.22884 37190 ft 438 kts 172°
2026-04-16 13:36 49.49154 0.24070 37243 ft 433 kts 172°
2026-04-16 13:37 49.43314 0.26409 37247 ft 430 kts 172°
2026-04-16 13:37 49.37572 0.28689 37245 ft 429 kts 172°
2026-04-16 13:38 49.31790 0.30981 37246 ft 429 kts 172°
2026-04-16 13:38 49.26020 0.33334 37247 ft 429 kts 171°
2026-04-16 13:39 49.20262 0.35802 37245 ft 430 kts 171°
2026-04-16 13:39 49.14508 0.38256 37248 ft 429 kts 171°
2026-04-16 13:40 49.08746 0.40674 37256 ft 429 kts 171°
2026-04-16 13:40 49.02982 0.43084 37241 ft 429 kts 171°
2026-04-16 13:41 48.97216 0.45489 37233 ft 430 kts 171°
2026-04-16 13:41 48.91440 0.47890 37235 ft 430 kts 171°
2026-04-16 13:42 48.85658 0.50284 37240 ft 431 kts 171°
2026-04-16 13:42 48.79870 0.52691 37250 ft 431 kts 171°
2026-04-16 13:43 48.74079 0.55050 37253 ft 431 kts 172°
2026-04-16 13:43 48.68274 0.57299 37257 ft 430 kts 172°
2026-04-16 13:44 48.62470 0.59531 37239 ft 430 kts 172°
2026-04-16 13:44 48.56670 0.61776 37247 ft 431 kts 172°
2026-04-16 13:45 48.50866 0.64039 37252 ft 431 kts 171°
2026-04-16 13:45 48.45071 0.66391 37260 ft 431 kts 171°
2026-04-16 13:46 48.39282 0.68784 37253 ft 431 kts 171°
2026-04-16 13:46 48.33487 0.71148 37262 ft 431 kts 171°
2026-04-16 13:47 48.27689 0.73489 37267 ft 431 kts 171°
2026-04-16 13:47 48.21892 0.75806 37248 ft 431 kts 171°
2026-04-16 13:48 48.16091 0.78088 37258 ft 431 kts 171°
2026-04-16 13:48 48.10328 0.80335 37266 ft 431 kts 171°
2026-04-16 13:49 48.04525 0.82599 37272 ft 431 kts 171°
2026-04-16 13:49 47.98728 0.84872 37258 ft 431 kts 171°
2026-04-16 13:50 47.92922 0.87151 37259 ft 431 kts 171°
2026-04-16 13:50 47.87110 0.89405 37262 ft 432 kts 171°
2026-04-16 13:51 47.81296 0.91648 37262 ft 432 kts 171°
2026-04-16 13:51 47.75474 0.93911 37250 ft 432 kts 171°
2026-04-16 13:52 47.69660 0.96166 37255 ft 432 kts 171°
2026-04-16 13:52 47.63842 0.98408 37263 ft 432 kts 171°
2026-04-16 13:53 47.58021 1.00641 37253 ft 432 kts 171°
2026-04-16 13:53 47.53185 1.02498 37262 ft 432 kts 171°
2026-04-16 13:54 47.47333 1.03420 37268 ft 420 kts 186°
2026-04-16 13:54 47.41481 1.03326 37270 ft 421 kts 185°
2026-04-16 13:55 47.35602 1.03668 37254 ft 424 kts 182°
2026-04-16 13:55 47.29716 1.04245 37264 ft 424 kts 181°
2026-04-16 13:56 47.23828 1.04771 37266 ft 424 kts 182°
2026-04-16 13:56 47.17941 1.05225 37271 ft 423 kts 182°
2026-04-16 13:57 47.12054 1.05644 37261 ft 423 kts 182°
2026-04-16 13:57 47.06169 1.06070 37270 ft 424 kts 182°
2026-04-16 13:58 46.97335 1.06745 37265 ft 424 kts 182°
2026-04-16 13:58 46.91445 1.07200 37266 ft 424 kts 182°
2026-04-16 13:59 46.85554 1.07648 37274 ft 424 kts 182°
2026-04-16 13:59 46.79662 1.08079 37276 ft 424 kts 182°
2026-04-16 14:00 46.73768 1.08518 37279 ft 424 kts 182°
2026-04-16 14:00 46.67876 1.08964 37281 ft 424 kts 182°
2026-04-16 14:01 46.61983 1.09405 37283 ft 424 kts 182°
2026-04-16 14:01 46.56083 1.09843 37265 ft 424 kts 182°
2026-04-16 14:02 46.50228 1.10270 37263 ft 425 kts 182°
2026-04-16 14:02 46.44324 1.10705 37266 ft 425 kts 182°
2026-04-16 14:03 46.38417 1.11146 37273 ft 425 kts 182°
2026-04-16 14:03 46.32508 1.11585 37265 ft 425 kts 182°
2026-04-16 14:04 46.26594 1.12020 37271 ft 426 kts 181°
2026-04-16 14:04 46.20681 1.12460 37275 ft 426 kts 182°
2026-04-16 14:05 46.14767 1.12888 37260 ft 426 kts 181°
2026-04-16 14:05 46.08847 1.13312 37267 ft 426 kts 181°
2026-04-16 14:06 46.02923 1.13740 37274 ft 426 kts 181°
2026-04-16 14:06 45.97000 1.14180 37279 ft 426 kts 181°
2026-04-16 14:07 45.91075 1.14618 37240 ft 426 kts 181°
2026-04-16 14:07 45.85148 1.15047 37246 ft 427 kts 181°
2026-04-16 14:08 45.79214 1.15460 37253 ft 427 kts 182°
2026-04-16 14:08 45.73288 1.15819 37247 ft 427 kts 182°
2026-04-16 14:09 45.67350 1.16175 37261 ft 427 kts 182°
2026-04-16 14:09 45.61411 1.16538 37262 ft 427 kts 181°
2026-04-16 14:10 45.55470 1.16905 37246 ft 427 kts 181°
2026-04-16 14:10 45.49519 1.17275 37238 ft 429 kts 181°
2026-04-16 14:11 45.43550 1.17636 37239 ft 430 kts 181°
2026-04-16 14:11 45.37571 1.17992 37232 ft 430 kts 181°
2026-04-16 14:12 45.31626 1.18359 37240 ft 431 kts 181°
2026-04-16 14:12 45.25639 1.18728 37237 ft 431 kts 181°
2026-04-16 14:13 45.19645 1.19088 37237 ft 431 kts 181°
2026-04-16 14:13 45.13698 1.18764 37227 ft 425 kts 194°
2026-04-16 14:14 45.07879 1.17262 37232 ft 425 kts 194°
2026-04-16 14:14 45.02061 1.15757 37233 ft 425 kts 194°
2026-04-16 14:15 44.96239 1.14264 37233 ft 425 kts 194°
2026-04-16 14:15 44.90417 1.12778 37245 ft 425 kts 194°
2026-04-16 14:16 44.84605 1.11293 37249 ft 424 kts 194°
2026-04-16 14:16 44.78797 1.09816 37249 ft 424 kts 194°
2026-04-16 14:17 44.72988 1.08340 37246 ft 424 kts 194°
2026-04-16 14:17 44.67184 1.06874 37245 ft 424 kts 194°
2026-04-16 14:18 44.61380 1.05405 37252 ft 424 kts 194°
2026-04-16 14:18 44.55574 1.03950 37242 ft 424 kts 193°
2026-04-16 14:19 44.49771 1.02479 37234 ft 424 kts 194°
2026-04-16 14:19 44.43967 1.01010 37236 ft 424 kts 194°
2026-04-16 14:20 44.38151 0.99551 37224 ft 424 kts 193°
2026-04-16 14:20 44.32332 0.98100 37221 ft 425 kts 193°
2026-04-16 14:21 44.26511 0.96641 37225 ft 425 kts 193°
2026-04-16 14:21 44.20687 0.95185 37221 ft 425 kts 193°
2026-04-16 14:22 44.14821 0.93723 37220 ft 426 kts 193°
2026-04-16 14:22 44.09025 0.92290 37225 ft 426 kts 193°
2026-04-16 14:23 44.03187 0.90846 37229 ft 426 kts 193°
2026-04-16 14:23 43.97352 0.89407 37216 ft 426 kts 193°
2026-04-16 14:24 43.91506 0.87958 37221 ft 427 kts 193°
2026-04-16 14:24 43.85664 0.86485 37223 ft 427 kts 194°
2026-04-16 14:25 43.79838 0.84911 37211 ft 427 kts 194°
2026-04-16 14:25 43.74004 0.83322 37217 ft 427 kts 194°
2026-04-16 14:26 43.68170 0.81765 37219 ft 427 kts 194°
2026-04-16 14:26 43.62328 0.80206 37214 ft 428 kts 194°
2026-04-16 14:27 43.56477 0.78649 37214 ft 428 kts 193°
2026-04-16 14:27 43.50626 0.77107 37215 ft 428 kts 193°
2026-04-16 14:28 43.44771 0.75565 37220 ft 428 kts 194°
2026-04-16 14:28 43.38928 0.74017 37214 ft 428 kts 193°
2026-04-16 14:29 43.33081 0.72474 37218 ft 428 kts 193°
2026-04-16 14:29 43.27237 0.70943 37219 ft 427 kts 193°
2026-04-16 14:30 43.21397 0.69410 37207 ft 428 kts 193°
2026-04-16 14:30 43.15550 0.67877 37213 ft 428 kts 193°
2026-04-16 14:31 43.09702 0.66342 37225 ft 428 kts 193°
2026-04-16 14:31 43.03895 0.64825 37222 ft 428 kts 193°
2026-04-16 14:32 42.98048 0.63298 37210 ft 428 kts 193°
2026-04-16 14:32 42.92159 0.61758 37223 ft 428 kts 193°
2026-04-16 14:33 42.86348 0.60250 37202 ft 428 kts 193°
2026-04-16 14:33 42.80500 0.58733 37208 ft 428 kts 193°
2026-04-16 14:34 42.74646 0.57228 37205 ft 428 kts 193°
2026-04-16 14:34 42.68795 0.55714 37208 ft 428 kts 193°
2026-04-16 14:35 42.62945 0.54200 37212 ft 428 kts 193°
2026-04-16 14:35 42.57086 0.52700 37189 ft 428 kts 193°
2026-04-16 14:36 42.51188 0.51195 37180 ft 428 kts 193°
2026-04-16 14:36 42.45367 0.49706 37187 ft 428 kts 193°
2026-04-16 14:37 42.40457 0.48455 37173 ft 428 kts 193°
2026-04-16 14:37 42.33651 0.46717 37165 ft 429 kts 193°
2026-04-16 14:38 42.27789 0.45220 37156 ft 429 kts 193°
2026-04-16 14:38 42.22873 0.43969 37157 ft 429 kts 193°
2026-04-16 14:39 42.17045 0.42491 37148 ft 429 kts 193°
2026-04-16 14:39 42.11173 0.41000 37150 ft 430 kts 193°
2026-04-16 14:40 42.05293 0.39517 37151 ft 430 kts 193°
2026-04-16 14:40 41.99414 0.38028 37157 ft 430 kts 193°
2026-04-16 14:41 41.93535 0.36543 37152 ft 430 kts 193°
2026-04-16 14:41 41.87654 0.35063 37161 ft 430 kts 193°
2026-04-16 14:42 41.81775 0.33595 37160 ft 430 kts 193°
2026-04-16 14:42 41.75902 0.32122 37158 ft 430 kts 193°
2026-04-16 14:43 41.70028 0.30651 37158 ft 430 kts 193°
2026-04-16 14:43 41.64147 0.29178 37154 ft 430 kts 193°
2026-04-16 14:44 41.58265 0.27718 37155 ft 430 kts 193°
2026-04-16 14:44 41.52381 0.26262 37146 ft 430 kts 193°
2026-04-16 14:45 41.46493 0.24802 37139 ft 430 kts 193°
2026-04-16 14:45 41.40606 0.23341 37143 ft 430 kts 193°
2026-04-16 14:46 41.34716 0.21885 37138 ft 430 kts 193°
2026-04-16 14:46 41.28826 0.20427 37134 ft 431 kts 193°
2026-04-16 14:47 41.22928 0.18970 37133 ft 431 kts 193°
2026-04-16 14:47 41.17028 0.17521 37135 ft 431 kts 193°
2026-04-16 14:48 41.11179 0.15814 37133 ft 429 kts 200°
2026-04-16 14:48 41.05466 0.13496 37132 ft 430 kts 200°
2026-04-16 14:49 40.99778 0.11199 37139 ft 430 kts 199°
2026-04-16 14:49 40.94050 0.08895 37140 ft 430 kts 199°
2026-04-16 14:50 40.88316 0.06596 37140 ft 431 kts 200°
2026-04-16 14:50 40.82575 0.04295 37141 ft 432 kts 200°
2026-04-16 14:51 40.76833 0.01992 37144 ft 432 kts 200°
2026-04-16 14:51 40.71080 -0.00307 37154 ft 432 kts 200°
2026-04-16 14:53 40.48121 -0.09436 37185 ft 430 kts 200°
2026-04-16 14:54 40.42388 -0.11706 37181 ft 431 kts 200°
2026-04-16 14:54 40.36651 -0.13978 37184 ft 431 kts 200°
2026-04-16 14:55 40.30909 -0.16239 37182 ft 431 kts 200°
2026-04-16 14:55 40.25171 -0.18500 37167 ft 431 kts 200°
2026-04-16 14:56 40.19415 -0.20761 37086 ft 437 kts 200°
2026-04-16 14:56 40.16477 -0.21913 36751 ft 442 kts 199°
2026-04-16 14:56 40.13542 -0.23064 36235 ft 439 kts 199°
2026-04-16 14:57 40.10627 -0.24209 35732 ft 436 kts 199°
2026-04-16 14:57 40.07733 -0.25345 35213 ft 433 kts 199°
2026-04-16 14:57 40.04857 -0.26476 34700 ft 431 kts 199°
2026-04-16 14:57 40.01990 -0.27602 34202 ft 429 kts 199°
2026-04-16 14:58 39.99140 -0.28718 33682 ft 426 kts 199°
2026-04-16 14:58 39.93510 -0.30911 32725 ft 419 kts 199°
2026-04-16 14:58 39.90766 -0.31975 32264 ft 415 kts 199°
2026-04-16 14:59 39.88011 -0.33045 31801 ft 411 kts 199°
2026-04-16 14:59 39.85280 -0.34106 31356 ft 408 kts 199°
2026-04-16 14:59 39.82565 -0.35159 30917 ft 406 kts 199°
2026-04-16 14:59 39.79871 -0.36203 30463 ft 403 kts 199°
2026-04-16 15:00 39.77195 -0.37241 30016 ft 400 kts 199°
2026-04-16 15:00 39.74542 -0.38269 29586 ft 396 kts 199°
2026-04-16 15:00 39.71911 -0.39287 29185 ft 392 kts 199°
2026-04-16 15:00 39.69307 -0.40295 28783 ft 389 kts 199°
2026-04-16 15:01 39.66720 -0.41301 28382 ft 386 kts 199°
2026-04-16 15:01 39.64161 -0.42293 27980 ft 382 kts 199°
2026-04-16 15:01 39.61623 -0.43275 27587 ft 379 kts 199°
2026-04-16 15:01 39.59106 -0.44244 27178 ft 376 kts 198°
2026-04-16 15:02 39.56611 -0.45201 26771 ft 373 kts 199°
2026-04-16 15:02 39.54137 -0.46159 26328 ft 370 kts 199°
2026-04-16 15:02 39.51684 -0.47108 25913 ft 367 kts 198°
2026-04-16 15:02 39.49235 -0.48037 25496 ft 365 kts 198°
2026-04-16 15:03 39.46801 -0.48939 25054 ft 364 kts 198°
2026-04-16 15:03 39.44367 -0.49820 24627 ft 362 kts 198°
2026-04-16 15:03 39.41939 -0.50686 24187 ft 362 kts 197°
2026-04-16 15:03 39.39511 -0.51547 23745 ft 361 kts 197°
2026-04-16 15:04 39.37093 -0.52403 23257 ft 360 kts 197°
2026-04-16 15:04 39.34685 -0.53255 22817 ft 357 kts 197°
2026-04-16 15:04 39.32294 -0.54103 22392 ft 355 kts 197°
2026-04-16 15:04 39.29916 -0.54948 21969 ft 353 kts 197°
2026-04-16 15:05 39.27557 -0.55789 21550 ft 352 kts 197°
2026-04-16 15:05 39.25200 -0.56629 21134 ft 350 kts 197°
2026-04-16 15:05 39.22857 -0.57462 20725 ft 349 kts 197°
2026-04-16 15:05 39.20522 -0.58291 20322 ft 348 kts 197°
2026-04-16 15:06 39.18188 -0.59117 19909 ft 347 kts 197°
2026-04-16 15:06 39.15861 -0.59942 19500 ft 347 kts 197°
2026-04-16 15:06 39.13538 -0.60764 19097 ft 346 kts 197°
2026-04-16 15:06 39.11219 -0.61584 18697 ft 346 kts 197°
2026-04-16 15:07 39.08896 -0.62406 18268 ft 346 kts 197°
2026-04-16 15:07 39.06577 -0.63227 17844 ft 345 kts 197°
2026-04-16 15:07 39.04275 -0.64042 17449 ft 343 kts 197°
2026-04-16 15:07 39.02009 -0.64843 17074 ft 341 kts 197°
2026-04-16 15:08 38.99723 -0.65650 16686 ft 340 kts 197°
2026-04-16 15:08 38.97445 -0.66455 16298 ft 339 kts 197°
2026-04-16 15:08 38.95178 -0.67256 15979 ft 335 kts 197°
2026-04-16 15:08 38.92949 -0.68041 15702 ft 331 kts 197°
2026-04-16 15:09 38.90729 -0.68819 15333 ft 331 kts 197°
2026-04-16 15:09 38.88509 -0.69598 14938 ft 331 kts 197°
2026-04-16 15:09 38.86287 -0.70377 14562 ft 331 kts 197°
2026-04-16 15:09 38.84064 -0.71155 14182 ft 331 kts 197°
2026-04-16 15:10 38.81845 -0.71934 13772 ft 331 kts 197°
2026-04-16 15:10 38.79627 -0.72709 13369 ft 330 kts 196°
2026-04-16 15:10 38.77419 -0.73480 12976 ft 328 kts 196°
2026-04-16 15:10 38.75221 -0.74252 12582 ft 327 kts 196°
2026-04-16 15:11 38.73032 -0.75022 12182 ft 326 kts 196°
2026-04-16 15:11 38.70853 -0.75787 11786 ft 324 kts 196°
2026-04-16 15:11 38.68680 -0.76547 11381 ft 323 kts 197°
2026-04-16 15:11 38.66519 -0.77303 10986 ft 322 kts 196°
2026-04-16 15:12 38.64359 -0.78058 10567 ft 321 kts 196°
2026-04-16 15:12 38.62231 -0.78801 10157 ft 321 kts 196°
2026-04-16 15:12 38.60072 -0.79552 9963 ft 312 kts 196°
2026-04-16 15:12 38.58039 -0.80260 9782 ft 300 kts 196°
2026-04-16 15:13 38.56050 -0.80950 9648 ft 284 kts 196°
2026-04-16 15:13 38.54208 -0.81584 9373 ft 274 kts 195°
2026-04-16 15:13 38.52349 -0.82019 8933 ft 274 kts 190°
2026-04-16 15:13 38.50495 -0.82428 8691 ft 266 kts 191°
2026-04-16 15:14 38.48678 -0.82840 8270 ft 266 kts 191°
2026-04-16 15:14 38.46878 -0.83252 7976 ft 257 kts 191°
2026-04-16 15:14 38.45132 -0.83650 7655 ft 254 kts 191°
2026-04-16 15:14 38.43399 -0.84044 7377 ft 251 kts 191°
2026-04-16 15:15 38.41695 -0.84428 7123 ft 247 kts 190°
2026-04-16 15:15 38.40030 -0.84800 6989 ft 238 kts 191°
2026-04-16 15:15 38.38448 -0.85154 6853 ft 224 kts 191°
2026-04-16 15:15 38.36911 -0.85498 6381 ft 228 kts 189°
2026-04-16 15:16 38.35308 -0.85504 5768 ft 235 kts 169°
2026-04-16 15:16 38.33769 -0.84771 5153 ft 241 kts 148°
2026-04-16 15:16 38.32527 -0.83354 4560 ft 243 kts 127°
2026-04-16 15:16 38.31774 -0.81426 3939 ft 246 kts 105°
2026-04-16 15:17 38.31468 -0.79312 3544 ft 239 kts 101°
2026-04-16 15:17 38.31188 -0.77279 3226 ft 228 kts 102°
2026-04-16 15:17 38.30920 -0.75329 2925 ft 220 kts 100°
2026-04-16 15:17 38.30660 -0.73445 2646 ft 211 kts 100°
2026-04-16 15:18 38.30412 -0.71649 2362 ft 201 kts 101°
2026-04-16 15:18 38.30178 -0.69952 2134 ft 189 kts 101°
2026-04-16 15:18 38.29956 -0.68346 1862 ft 179 kts 102°
2026-04-16 15:18 38.29747 -0.66833 1629 ft 167 kts 101°
2026-04-16 15:19 38.29559 -0.65469 1422 ft 147 kts 101°
2026-04-16 15:19 38.29390 -0.64251 1230 ft 135 kts 102°
2026-04-16 15:19 38.29232 -0.63117 1061 ft 128 kts 101°
2026-04-16 15:19 38.29078 -0.62005 890 ft 127 kts 99°
2026-04-16 15:20 38.28924 -0.60907 749 ft 126 kts 99°
2026-04-16 15:20 38.28770 -0.59801 537 ft 125 kts 99°
2026-04-16 15:20 38.28622 -0.58733 377 ft 123 kts 99°
2026-04-16 15:20 38.28473 -0.57662 219 ft 123 kts 99°
2026-04-16 15:21 38.28328 -0.56617 122 ft 112 kts 99°
2026-04-16 15:21 38.28219 -0.55830 105 ft 66 kts 100°
2026-04-16 15:21 38.28156 -0.55378 90 ft 48 kts 100°
2026-04-16 15:21 38.28122 -0.55069 81 ft 28 kts 89°
2026-04-16 15:22 38.28150 -0.54877 74 ft 18 kts 72°
2026-04-16 15:22 38.28187 -0.54742 66 ft 12 kts 68°
2026-04-16 15:22 38.28242 -0.54724 64 ft 9 kts 302°
2026-04-16 15:22 38.28253 -0.54792 71 ft 6 kts 281°
2026-04-16 15:23 38.28259 -0.54839 73 ft 5 kts 279°
2026-04-16 15:23 38.28267 -0.54903 75 ft 10 kts 279°
2026-04-16 15:23 38.28281 -0.55003 79 ft 12 kts 280°
2026-04-16 15:23 38.28295 -0.55100 82 ft 10 kts 281°
2026-04-16 15:24 38.28309 -0.55184 85 ft 9 kts 290°
2026-04-16 15:24 38.28358 -0.55203 87 ft 8 kts 27°
2026-04-16 15:24 38.28401 -0.55150 91 ft 9 kts 24°
2026-04-16 15:24 38.28440 -0.55197 88 ft 10 kts 281°
2026-04-16 15:25 38.28452 -0.55281 89 ft 8 kts 280°
2026-04-16 15:25 38.28460 -0.55341 91 ft 5 kts 280°
2026-04-16 15:25 38.28467 -0.55381 91 ft 5 kts 281°
2026-04-16 15:25 38.28473 -0.55438 95 ft 7 kts 279°
2026-04-16 15:26 38.28499 -0.55464 92 ft 7 kts 11°
2026-04-16 15:26 38.28542 -0.55453 91 ft 2 kts
2026-04-16 15:26 38.28549 -0.55451 91 ft 0 kts 11°